User: anonymous   Login
Location: Kitchener
(43.2612°N, 80.5078°W)
Time: 22:17:08
(UTC+02:00)
Language:

Iridium 57 - Orbit

View from above orbital plane
View from above orbital plane
View from above satellite
View from above satellite

Ground track
Ground track

The orbit data is extracted from the following two-line orbital elements,

1 25273U 98019B   16179.18112011  .00000076  00000-0  20050-4 0  9999
2 25273  86.3972  75.7390 0002149  89.0814 271.0628 14.34224445955180
Epoch (UTC): 27 June 2016 04:20:48
Eccentricity: 0.0002149
inclination: 86.3972°
perigee height: 776 km
apogee height: 779 km
right ascension of ascending node: 75.7390°
argument of perigee: 89.0814°
revolutions per day: 14.34224445
mean anomaly at epoch: 271.0628°
orbit number at epoch: 95518

The dashed part of the orbit path shows where the satellite is in the earth's shadow,  

DLR